Date,TemperatureHighF,TemperatureAvgF,TemperatureLowF,DewpointHighF,DewpointAvgF,DewpointLowF,HumidityHigh,HumidityAvg,HumidityLow,PressureMaxIn,PressureMinIn,WindSpeedMaxMPH,WindSpeedAvgMPH,GustSpeedMaxMPH,PrecipitationSumIn
2013-2-4,51.3,48.7,46.2,44.8,43.7,42.9,89,83,76,30.03,29.72,0,0,0,0.00
2013-2-5,50.9,46.7,44.2,44.3,42.5,40.7,91,85,74,29.76,29.67,7,0,7,0.00
2013-2-6,50.4,46.0,43.7,41.5,40.6,39.8,87,82,70,29.89,29.62,2,0,7,0.00
2013-2-7,48.7,43.6,36.3,40.8,37.0,32.5,88,78,64,30.05,29.62,6,0,7,0.00
2013-2-8,45.9,39.5,32.5,39.3,34.7,29.7,90,83,71,30.18,30.04,0,0,0,0.00
2013-2-9,45.3,42.6,40.3,41.2,39.1,36.7,91,87,83,30.21,30.12,0,0,0,0.00
2013-2-10,45.7,40.1,33.8,40.7,36.5,31.4,92,87,76,30.26,30.19,0,0,0,0.00
2013-2-11,47.5,43.6,39.9,42.0,39.6,37.0,90,86,78,30.24,30.19,0,0,0,0.00
2013-2-12,49.6,46.7,43.5,45.8,43.5,40.0,91,88,85,30.28,30.15,7,0,7,0.00
2013-2-13,48.6,45.6,44.2,44.8,42.9,41.7,92,90,86,30.38,30.17,4,0,4,0.00
2013-2-14,49.1,46.2,43.5,45.0,43.2,41.0,91,89,84,30.45,30.37,6,0,6,0.00
2013-2-15,54.5,45.4,39.6,46.0,41.4,37.5,94,86,71,30.44,30.03,0,0,2,0.00
2013-2-16,52.2,44.3,39.6,44.7,41.0,36.9,92,88,71,30.06,29.96,8,0,8,0.02
2013-2-17,46.9,42.7,40.6,41.2,38.8,37.6,90,86,77,30.12,29.96,1,0,2,0.00
2013-2-18,46.9,42.3,38.5,39.9,37.2,35.2,89,82,73,29.96,29.59,0,0,3,0.00
2013-2-19,48.9,42.8,37.8,37.7,35.4,32.6,87,76,58,29.85,29.55,4,0,4,0.00
2013-2-20,46.0,41.1,36.1,39.9,36.8,32.3,88,85,75,29.89,29.84,0,0,2,0.00
2013-2-21,44.4,42.5,40.3,40.2,38.7,37.0,91,86,81,29.92,29.84,6,0,6,0.00
2013-2-22,46.2,43.1,40.6,41.7,38.6,34.6,89,84,77,29.89,29.51,13,0,13,0.00
2013-2-23,48.6,43.3,39.9,39.8,36.8,34.9,85,78,64,30.25,29.73,0,0,0,0.00
2013-2-24,47.7,44.5,41.2,38.2,36.8,35.6,82,75,68,30.25,29.79,4,0,12,0.00
2013-2-25,50.7,44.4,39.0,39.7,36.7,32.8,86,75,61,30.17,29.71,7,0,7,0.00
2013-2-26,48.6,43.1,36.7,37.5,34.3,32.0,84,72,58,30.22,30.05,2,0,2,0.00
2013-2-27,50.7,45.2,40.8,43.0,40.3,36.1,90,83,69,30.17,30.06,0,0,0,0.00
2013-2-28,51.8,46.0,42.6,49.6,43.6,40.2,93,91,90,30.19,30.03,9,1,9,0.00